User: anonymous   Login
Location: The D'Auria's Ocala Star Observatory
(29.0276°N, 82.1742°W)
Time: 16:17:33
(UTC-04:00)
Language:

Okean 3 Rocket - Orbit

View from above orbital plane
View from above orbital plane
View from above satellite
View from above satellite

Ground track
Ground track

The orbit data is extracted from the following two-line orbital elements,

1 21398U 91039B   15184.11354633  .00000131  00000-0  14374-4 0  9998
2 21398 082.5221 171.7507 0021790 010.6283 061.7657 14.79487348298176
Epoch (UTC): 03 July 2015 02:43:30
Eccentricity: 0.0021790
inclination: 82.5221°
perigee height: 615 km
apogee height: 646 km
right ascension of ascending node: 171.7507°
argument of perigee: 10.6283°
revolutions per day: 14.79487348
mean anomaly at epoch: 61.7657°
orbit number at epoch: 29817

The dashed part of the orbit path shows where the satellite is in the earth's shadow,  

DLR